Weather Roundup
Issued by NWS

Home | Current Version | Previous Version | Graphics & Text | Print | Product List | Glossary Off
Versions: 1 2 3 4 5 6 7 8 9 10 11 12 13 14 15 16 17 18 19 20 21 22 23 24 25 26 27 28 29 30 31 32 33 34 35 36 37 38 39 40 41 42 43 44 45 46 47 48 49 50

000
NZUS93 KARX 281659
HRRWXR

CURRENT HOURLY OBSERVATIONS ACROSS
MUCH OF THE UPPER MISSISSIPPI VALLEY
NATIONAL WEATHER SERVICE LA CROSSE WI
1200 PM CDT WED JUN 28 2017


...SOUTHEAST MINNESOTA...


CITY           SKY/WX    TMP DP  RH WIND       PRES   REMARKS
ROCHESTER      CLOUDY    67  65  93 S14       29.67F
ROCHESTER/MAYO NOT AVBL
WINONA         CLOUDY    70  66  88 S7        29.69S
AUSTIN         CLOUDY    70  63  78 S12G18    29.67S
ALBERT LEA     NOT AVBL
DODGE CENTER   CLOUDY    70  63  78 S18G26    29.66R
PRESTON        CLOUDY    67  63  86 S16G26    29.69F
OWATONNA       CLOUDY    70  64  83 S13G18    29.63S
FARIBAULT      CLOUDY    72  66  83 S14G22    29.60F
$$

...ELSEWHERE IN MINNESOTA...


CITY           SKY/WX    TMP DP  RH WIND       PRES   REMARKS
MINNEAPOLIS    CLOUDY    70  65  84 S9        29.57F
INTNL FALLS    LGT RAIN  62  54  74 E9        29.61F
DULUTH         HVY RAIN  54  54 100 E9        29.62F FOG
RED WING       CLOUDY    68  63  83 SE7       29.62F
REDWOOD FALLS  PTSUNNY   77  64  64 SW18G25   29.52F
MANKATO        CLOUDY    77  68  73 SW18G25   29.57F
WORTHINGTON    MOSUNNY   76  65  68 SW20      29.61S
FAIRMONT       CLOUDY    76  67  73 SW23G29   29.60F
$$

...SOUTHWEST WISCONSIN...


CITY           SKY/WX    TMP DP  RH WIND       PRES   REMARKS
LA CROSSE      CLOUDY    71  67  87 S16G22    29.71F
PRAIRIE DU CHI LGT RAIN  68  64  88 CALM      29.78R
BOSCOBEL       LGT RAIN  69  66  90 S9        29.79S
LONE ROCK      CLOUDY    67  64  90 S12G22    29.81R
PLATTEVILLE    CLOUDY    67  67 100 S23       29.82R
FORT MC COY    RAIN      64  63  97 SW10G16   29.75R
MAUSTON-NEW LI LGT RAIN  65  63  93 S9        29.75F
VIROQUA        CLOUDY    65  65 100 S16G25    29.77R
WIS DELLS      DRIZZLE   64  61  92 S14       29.78F
$$

...ELSEWHERE IN WISCONSIN...


CITY           SKY/WX    TMP DP  RH WIND       PRES   REMARKS
MILWAUKEE      LGT RAIN  64  59  83 S20G31    29.84F
MADISON        LGT RAIN  64  62  93 S13       29.82S
GREEN BAY      LGT RAIN  66  61  84 S16G23    29.80F
EAU CLAIRE     NOT AVBL
BLACK RVR FLS  LGT RAIN  66  66 100 S3        29.73S
MEDFORD        RAIN      58  57  96 SE6       29.74F
WAUSAU         RAIN      61  59  93 SE10      29.76S FOG
WIS RAPIDS     RAIN      63  62  97 S7        29.77F FOG
MARSHFIELD     RAIN      62  60  93 S7        29.74S FOG
RICE LAKE      CLOUDY    63  61  95 SE8       29.66F
$$

...NORTHEAST IOWA...


CITY           SKY/WX    TMP DP  RH WIND       PRES   REMARKS
WATERLOO       LGT RAIN  73  66  78 S14       29.70F
DUBUQUE        CLOUDY    66  64  93 S17G26    29.79F
DECORAH        CLOUDY    68  64  88 S15G25    29.71F
MASON CITY     CLOUDY    76  66  71 SW17G28   29.68S
CHARLES CITY   PTSUNNY   70  70 100 SE17G23   29.71S
OELWEIN        CLOUDY    72  68  88 S21G29    29.74S
$$

...ELSEWHERE IN IOWA...


CITY           SKY/WX    TMP DP  RH WIND       PRES   REMARKS
DES MOINES     CLOUDY    81  68  64 SW24G33   29.70F
IOWA CITY      CLOUDY    77  67  71 S17G30    29.79R
FORT DODGE     CLOUDY    72  66  83 SW9G18    29.69R THUNDER
MARSHALLTOWN   MOSUNNY   79  65  62 SW18G26   29.70F
CEDAR RAPIDS   PTSUNNY   74  68  81 S17G28    29.76S
$$

...NORTHERN ILLINOIS...


CITY           SKY/WX    TMP DP  RH WIND       PRES   REMARKS
CHICAGO-OHARE  RAIN      63  58  83 S23       29.96F
CHICAGO-MIDWAY LGT RAIN  66  58  75 S9        30.00F
MOLINE         PTSUNNY   73  66  78 S16G25    29.78F
ROCKFORD       CLOUDY    67  63  87 S17G26    29.90S
PEORIA         CLOUDY    76  66  71 S16G24    29.91F
$$

NOTE: "FAIR" INDICATES FEW OR NO CLOUDS BELOW 12,000 FEET WITH NO
SIGNIFICANT WEATHER AND/OR OBSTRUCTIONS TO VISIBILITY. WIND
SPEEDS ARE IN MILES-PER-HOUR.




USA.gov is the U.S. government's official web portal to all federal, state and local government web resources and services.